Regional Weather Roundup
Issued by NWS

Home | Current Version | Previous Version | Graphics & Text | Print | Product List | Glossary On
Versions: 1 2 3 4 5 6 7 8 9 10 11 12 13 14 15 16 17 18 19 20 21 22 23 24 25 26 27 28 29 30 31 32 33 34 35 36 37 38 39 40 41 42 43 44 45 46 47 48 49 50
624
ASUS43 KLSX 291610
RWRMO

WEATHER SUMMARY FOR MISSOURI
NATIONAL WEATHER SERVICE SPRINGFIELD MO
1100 AM CDT SUN MAY 29 2016

NOTE: "FAIR" INDICATES FEW OR NO CLOUDS BELOW 12,000 FEET WITH NO
       SIGNIFICANT WEATHER AND/OR OBSTRUCTIONS TO VISIBILITY.
       CURRENT SKY AND/OR WEATHER CONDITIONS ARE NOT AVAILABLE FOR
       CHILLICOTHE AND FARMINGTON.

MOZ001>031-035>038-043-044-053-054-291700-
...NORTHERN AND WESTERN MISSOURI...

CITY           SKY/WX    TMP DP  RH WIND       PRES   REMARKS
KANSAS CTY INT MOSUNNY   77  62  59 W8        30.13R
KANSAS C DTWN  SUNNY     80  64  58 N5        30.11R
LEE`S SUMMIT   SUNNY     80  60  50 W6        30.12S
ST JOSEPH      SUNNY     76  61  59 SW5       30.11S
CHILLICOTHE      N/A     79  63  57 VRB7      30.12R
KIRKSVILLE     SUNNY     76  59  55 W8        30.11S

$$
MOZ066>068-077>081-088>096-101>105-291700-
...SOUTHWEST MISSOURI...

CITY           SKY/WX    TMP DP  RH WIND       PRES   REMARKS
SPRINGFIELD    CLOUDY    78  66  66 W9        30.15S
JOPLIN         MOSUNNY   78  70  76 W7        30.15S
BRANSON        CLOUDY    77  68  73 NW7       30.17F

$$
MOZ032>034-039>042-045>050-055>058-069>072-291700-
...CENTRAL MISSOURI...

CITY           SKY/WX    TMP DP  RH WIND       PRES   REMARKS
COLUMBIA       SUNNY     81  63  54 W7        30.13R
JEFFERSON CITY SUNNY     81  64  56 CALM      30.11R
ROLLA          MOSUNNY   77  62  59 W10       30.13R
SEDALIA        SUNNY     82  63  52 W7        30.14R
WHITEMAN AFB   SUNNY     80  62  53 W8        30.12R
WARRENSBURG    SUNNY     79  59  50 W6        30.12S

$$
MOZ051-052-059>065-291700-
...EAST CENTRAL MISSOURI...

CITY           SKY/WX    TMP DP  RH WIND       PRES   REMARKS
ST LOUIS INTL  MOSUNNY   83  61  47 NW9       30.11S
SPIRIT OF STL  MOSUNNY   81  62  52 CALM      30.10R
ST CHARLES     SUNNY     81  63  54 W8        30.09S

$$
MOZ072>076-082>087-097>100-106>115-291700-
...SOUTH CENTRAL AND SOUTHEAST MISSOURI...

CITY           SKY/WX    TMP DP  RH WIND       PRES   REMARKS
CAPE GIRARDEAU MOSUNNY   79  69  71 CALM      30.11R
FARMINGTON     PTSUNNY   79  65  62 VRB6      30.14R
POPLAR BLUFF   SUNNY     82  67  60 N7        30.11S
WEST PLAINS    CLOUDY    80  63  55 N5        30.16F

$$




USA.gov is the U.S. government's official web portal to all federal, state and local government web resources and services.